| time (UTC) | temp F | wind direction | speed knots | gust knots | rain 1hr in | rain 24hr in | rain mn in | humidity % | barometer mb |
| 20260506111829 | 57 | 194 | 4.3 | 8.7 | 0.00 | 0.00 | 0.00 | 80 | 1015.0 |
| 20260506111350 | 57 | 182 | 5.2 | 9.6 | 0.00 | 0.00 | 0.00 | 80 | 1015.0 |
| 20260506110528 | 57 | 165 | 5.2 | 9.6 | 0.00 | 0.00 | 0.00 | 80 | 1014.9 |
| 20260506105455 | 57 | 188 | 5.2 | 9.6 | 0.00 | 0.00 | 0.00 | 80 | 1014.9 |
| 20260506104748 | 57 | 195 | 6.1 | 12.2 | 0.00 | 0.00 | 0.00 | 80 | 1014.7 |
| 20260506103937 | 57 | 169 | 5.2 | 12.2 | 0.00 | 0.00 | 0.00 | 80 | 1014.7 |
| 20260506103123 | 57 | 207 | 5.2 | 9.6 | 0.00 | 0.00 | 0.00 | 80 | 1014.7 |
| 20260506102421 | 57 | 173 | 4.3 | 8.7 | 0.00 | 0.00 | 0.00 | 80 | 1014.7 |
| 20260506101600 | 57 | 176 | 3.5 | 12.2 | 0.00 | 0.00 | 0.00 | 80 | 1014.8 |
| 20260506100632 | 57 | 188 | 6.1 | 12.2 | 0.00 | 0.00 | 0.00 | 79 | 1014.5 |
| 20260506095932 | 58 | 158 | 5.2 | 9.6 | 0.00 | 0.00 | 0.00 | 79 | 1014.5 |
| 20260506095225 | 58 | 162 | 3.5 | 10.4 | 0.00 | 0.00 | 0.00 | 79 | 1014.4 |
| 20260506094302 | 58 | 171 | 5.2 | 10.4 | 0.00 | 0.00 | 0.00 | 79 | 1014.4 |
| 20260506093444 | 58 | 213 | 5.2 | 9.6 | 0.00 | 0.00 | 0.00 | 78 | 1014.4 |
| 20260506092849 | 59 | 167 | 3.5 | 10.4 | 0.00 | 0.00 | 0.00 | 78 | 1014.4 |
| 20260506091812 | 59 | 170 | 5.2 | 10.4 | 0.00 | 0.00 | 0.00 | 77 | 1014.4 |
| 20260506091224 | 59 | 176 | 4.3 | 9.6 | 0.00 | 0.00 | 0.00 | 77 | 1014.4 |
| 20260506090146 | 60 | 186 | 3.5 | 12.2 | 0.00 | 0.00 | 0.00 | 76 | 1014.4 |
| 20260506085109 | 60 | 186 | 3.5 | 12.2 | 0.00 | 0.00 | 0.00 | 76 | 1014.4 |
| 20260506084408 | 60 | 143 | 3.5 | 11.3 | 0.00 | 0.00 | 0.00 | 76 | 1014.5 |
| 20260506083919 | 61 | 205 | 5.2 | 11.3 | 0.00 | 0.00 | 0.00 | 75 | 1014.5 |
| 20260506083215 | 61 | 243 | 5.2 | 10.4 | 0.00 | 0.00 | 0.00 | 75 | 1014.4 |
| 20260506082402 | 61 | 175 | 4.3 | 9.6 | 0.00 | 0.00 | 0.00 | 74 | 1014.5 |
| 20260506082026 | 62 | 173 | 4.3 | 10.4 | 0.00 | 0.00 | 0.00 | 74 | 1014.5 |
| 20260506081059 | 62 | 238 | 4.3 | 10.4 | 0.00 | 0.00 | 0.00 | 74 | 1014.5 |
| 20260506080509 | 62 | 187 | 5.2 | 10.4 | 0.00 | 0.00 | 0.00 | 73 | 1014.5 |
| 20260506073418 | 63 | 169 | 5.2 | 9.6 | 0.00 | 0.00 | 0.00 | 71 | 1014.5 |
| 20260506072608 | 63 | 194 | 5.2 | 10.4 | 0.00 | 0.00 | 0.00 | 71 | 1014.6 |
| 20260506071753 | 63 | 224 | 4.3 | 14.8 | 0.00 | 0.00 | 0.00 | 71 | 1014.5 |
| 20260506071154 | 63 | 218 | 8.7 | 13.9 | 0.00 | 0.00 | 0.00 | 70 | 1014.5 |
| 20260506070605 | 63 | 178 | 7.0 | 13.9 | 0.00 | 0.00 | 0.00 | 70 | 1014.5 |
| 20260506062016 | 63 | 232 | 5.2 | 14.8 | 0.00 | 0.00 | 0.00 | 71 | 1014.5 |
| 20260506061310 | 63 | 163 | 7.8 | 14.8 | 0.00 | 0.00 | 0.00 | 72 | 1014.5 |
| 20260506060350 | 63 | 205 | 6.1 | 12.2 | 0.00 | 0.00 | 0.00 | 71 | 1014.4 |
| 20260506051300 | 64 | 192 | 5.2 | 12.2 | 0.00 | 0.00 | 0.00 | 72 | 1014.6 |
| 20260506050442 | 63 | 199 | 7.8 | 12.2 | 0.00 | 0.00 | 0.00 | 72 | 1014.9 |
| 20260506044436 | 63 | 187 | 6.1 | 15.6 | 0.00 | 0.00 | 0.00 | 73 | 1014.9 |
| 20260506043613 | 63 | 198 | 7.8 | 15.6 | 0.00 | 0.00 | 0.00 | 72 | 1015.0 |
| 20260506042803 | 63 | 201 | 6.1 | 12.2 | 0.00 | 0.00 | 0.00 | 74 | 1015.1 |
| 20260506042056 | 63 | 213 | 7.0 | 13.9 | 0.00 | 0.00 | 0.00 | 74 | 1015.2 |
| 20260506041502 | 63 | 208 | 6.1 | 13.9 | 0.00 | 0.00 | 0.00 | 74 | 1015.1 |
| 20260506040907 | 63 | 221 | 6.1 | 13.9 | 0.00 | 0.00 | 0.00 | 74 | 1015.2 |
| 20260506040418 | 63 | 141 | 6.1 | 13.9 | 0.00 | 0.00 | 0.00 | 74 | 1015.2 |
| 20260506035824 | 63 | 193 | 7.8 | 11.3 | 0.00 | 0.00 | 0.00 | 73 | 1015.3 |
| 20260506035345 | 63 | 227 | 6.1 | 14.8 | 0.00 | 0.00 | 0.00 | 74 | 1015.3 |
| 20260506034900 | 63 | 209 | 5.2 | 14.8 | 0.00 | 0.00 | 0.00 | 73 | 1015.4 |
| 20260506034154 | 64 | 191 | 7.0 | 11.3 | 0.00 | 0.00 | 0.00 | 72 | 1015.4 |
| 20260506033449 | 63 | 187 | 6.1 | 13.0 | 0.00 | 0.00 | 0.00 | 75 | 1015.4 |
| 20260506032635 | 63 | 190 | 8.7 | 13.0 | 0.00 | 0.00 | 0.00 | 73 | 1015.5 |
| 20260506031602 | 63 | 171 | 7.8 | 13.9 | 0.00 | 0.00 | 0.00 | 74 | 1015.6 |
| 20260506030753 | 63 | 182 | 7.0 | 13.9 | 0.00 | 0.00 | 0.00 | 74 | 1015.6 |
| 20260506030158 | 63 | 200 | 6.1 | 13.9 | 0.00 | 0.00 | 0.00 | 74 | 1015.6 |
| 20260506025231 | 63 | 217 | 7.0 | 13.0 | 0.00 | 0.00 | 0.00 | 73 | 1015.6 |
| 20260506024108 | 63 | 242 | 7.0 | 13.0 | 0.00 | 0.00 | 0.00 | 73 | 1015.7 |
| 20260506023100 | 63 | 168 | 7.8 | 13.0 | 0.00 | 0.00 | 0.00 | 73 | 1015.7 |
| 20260506022655 | 63 | 136 | 6.1 | 12.2 | 0.00 | 0.00 | 0.00 | 73 | 1015.7 |
| 20260506021842 | 64 | 202 | 6.1 | 12.2 | 0.00 | 0.00 | 0.00 | 74 | 1015.8 |
| 20260506021503 | 64 | 182 | 5.2 | 13.9 | 0.00 | 0.00 | 0.00 | 75 | 1015.7 |
| 20260506020434 | 63 | 174 | 6.1 | 14.8 | 0.00 | 0.00 | 0.00 | 73 | 1015.7 |
| 20260506015950 | 63 | 228 | 7.0 | 14.8 | 0.00 | 0.00 | 0.00 | 74 | 1015.7 |
| 20260506014917 | 63 | 205 | 7.0 | 12.2 | 0.00 | 0.00 | 0.00 | 74 | 1015.8 |
| 20260506014426 | 63 | 192 | 6.1 | 14.8 | 0.00 | 0.00 | 0.00 | 74 | 1015.7 |
| 20260506013624 | 63 | 174 | 7.8 | 14.8 | 0.00 | 0.00 | 0.00 | 74 | 1015.8 |
| 20260506012805 | 63 | 190 | 7.8 | 14.8 | 0.00 | 0.00 | 0.00 | 73 | 1015.8 |
| 20260506011950 | 63 | 182 | 10.4 | 13.9 | 0.00 | 0.00 | 0.00 | 72 | 1015.8 |
| 20260506011023 | 64 | 159 | 7.0 | 13.9 | 0.00 | 0.00 | 0.00 | 74 | 1015.8 |
| 20260506010428 | 63 | 190 | 7.0 | 13.0 | 0.00 | 0.00 | 0.00 | 75 | 1015.9 |
| 20260506010057 | 63 | 215 | 6.1 | 13.0 | 0.00 | 0.00 | 0.00 | 75 | 1015.9 |
| 20260506005456 | 63 | 197 | 5.2 | 14.8 | 0.00 | 0.00 | 0.00 | 77 | 1016.0 |
| 20260506005125 | 63 | 210 | 7.8 | 14.8 | 0.00 | 0.00 | 0.00 | 74 | 1016.0 |
| 20260506004856 | 62 | 163 | 5.2 | 12.2 | 0.00 | 0.00 | 0.00 | 74 | 1016.0 |
| 20260506003824 | 62 | 222 | 7.8 | 12.2 | 0.00 | 0.00 | 0.00 | 74 | 1016.1 |
| 20260506002749 | 63 | 185 | 4.3 | 12.2 | 0.00 | 0.00 | 0.00 | 74 | 1016.0 |
| 20260506001604 | 63 | 183 | 7.0 | 12.2 | 0.00 | 0.00 | 0.00 | 74 | 1016.1 |
| 20260506001233 | 63 | 185 | 7.0 | 13.9 | 0.00 | 0.00 | 0.00 | 76 | 1016.1 |
| 20260506000311 | 62 | 244 | 7.8 | 13.9 | 0.00 | 0.00 | 0.00 | 75 | 1016.0 |
| 20260505235342 | 62 | 239 | 7.8 | 13.0 | 0.00 | 0.00 | 0.00 | 75 | 1016.1 |
| 20260505234437 | 62 | 254 | 7.8 | 12.2 | 0.00 | 0.00 | 0.00 | 76 | 1016.2 |
| 20260505233841 | 62 | 238 | 7.8 | 12.2 | 0.00 | 0.00 | 0.00 | 77 | 1016.1 |
| 20260505232807 | 62 | 238 | 8.7 | 13.0 | 0.00 | 0.00 | 0.00 | 77 | 1016.2 |
| 20260505231735 | 62 | 188 | 7.0 | 14.8 | 0.00 | 0.00 | 0.00 | 75 | 1016.3 |
| 20260505231534 | 62 | 215 | 6.1 | 14.8 | 0.00 | 0.00 | 0.00 | 75 | 1016.2 |
| 20260505230913 | 62 | 191 | 6.1 | 12.2 | 0.00 | 0.00 | 0.00 | 78 | 1016.2 |
| 20260505225952 | 62 | 185 | 6.1 | 13.0 | 0.00 | 0.00 | 0.00 | 78 | 1016.2 |
| 20260505225241 | 61 | 227 | 7.8 | 15.6 | 0.00 | 0.00 | 0.00 | 77 | 1016.3 |
| 20260505224546 | 61 | 225 | 8.7 | 14.8 | 0.00 | 0.00 | 0.00 | 76 | 1016.4 |
| 20260505223724 | 61 | 223 | 8.7 | 13.9 | 0.00 | 0.00 | 0.00 | 78 | 1016.3 |
| 20260505222802 | 62 | 245 | 7.0 | 13.0 | 0.00 | 0.00 | 0.00 | 78 | 1016.3 |
| 20260505222203 | 62 | 246 | 7.0 | 13.0 | 0.00 | 0.00 | 0.00 | 76 | 1016.3 |
| 20260505221615 | 62 | 188 | 6.1 | 13.9 | 0.00 | 0.00 | 0.00 | 75 | 1016.2 |
| 20260505221235 | 62 | 134 | 7.0 | 13.9 | 0.00 | 0.00 | 0.00 | 75 | 1016.2 |
| 20260505220904 | 62 | 186 | 5.2 | 12.2 | 0.00 | 0.00 | 0.00 | 78 | 1016.2 |
| 20260505220312 | 61 | 228 | 7.0 | 12.2 | 0.00 | 0.00 | 0.00 | 78 | 1016.2 |
| 20260505215455 | 61 | 165 | 7.0 | 12.2 | 0.00 | 0.00 | 0.00 | 77 | 1016.2 |
| 20260505214754 | 61 | 140 | 7.8 | 12.2 | 0.00 | 0.00 | 0.00 | 77 | 1016.2 |
| 20260505214049 | 61 | 174 | 4.3 | 12.2 | 0.00 | 0.00 | 0.00 | 79 | 1016.2 |
| 20260505213336 | 60 | 226 | 7.8 | 13.0 | 0.00 | 0.00 | 0.00 | 79 | 1016.2 |
| 20260505212635 | 60 | 225 | 9.6 | 13.9 | 0.00 | 0.00 | 0.00 | 78 | 1016.2 |
| 20260505211937 | 60 | 229 | 6.1 | 13.9 | 0.00 | 0.00 | 0.00 | 80 | 1016.2 |
| 20260505211234 | 61 | 234 | 9.6 | 13.9 | 0.00 | 0.00 | 0.00 | 78 | 1016.2 |
| 20260505210413 | 61 | 216 | 4.3 | 10.4 | 0.00 | 0.00 | 0.00 | 79 | 1016.3 |
| 20260505205606 | 60 | 238 | 5.2 | 11.3 | 0.00 | 0.00 | 0.00 | 79 | 1016.2 |
| 20260505205224 | 61 | 169 | 6.1 | 13.0 | 0.00 | 0.00 | 0.00 | 78 | 1016.2 |
| 20260505204540 | 61 | 204 | 5.2 | 13.0 | 0.00 | 0.00 | 0.00 | 80 | 1016.2 |
| 20260505204041 | 61 | 245 | 6.1 | 11.3 | 0.00 | 0.00 | 0.00 | 79 | 1016.2 |
| 20260505203335 | 61 | 185 | 6.1 | 11.3 | 0.00 | 0.00 | 0.00 | 78 | 1016.2 |
| 20260505202850 | 60 | 190 | 7.0 | 11.3 | 0.00 | 0.00 | 0.00 | 79 | 1016.1 |
| 20260505202148 | 60 | 229 | 7.8 | 13.0 | 0.00 | 0.00 | 0.00 | 80 | 1016.1 |
| 20260505201226 | 60 | 173 | 7.0 | 13.0 | 0.00 | 0.00 | 0.00 | 79 | 1016.1 |
| 20260505200519 | 60 | 161 | 7.0 | 10.4 | 0.00 | 0.00 | 0.00 | 78 | 1016.0 |
| 20260505195820 | 61 | 211 | 5.2 | 12.2 | 0.00 | 0.00 | 0.00 | 80 | 1016.1 |
| 20260505194746 | 60 | 159 | 4.3 | 12.2 | 0.00 | 0.00 | 0.00 | 81 | 1016.0 |
| 20260505193823 | 60 | 251 | 7.0 | 12.2 | 0.00 | 0.00 | 0.00 | 80 | 1016.1 |
| 20260505193119 | 60 | 230 | 5.2 | 13.0 | 0.00 | 0.00 | 0.00 | 80 | 1016.2 |
| 20260505192407 | 60 | 211 | 7.0 | 13.0 | 0.00 | 0.00 | 0.00 | 79 | 1016.2 |
| 20260505191822 | 59 | 190 | 5.2 | 10.4 | 0.00 | 0.00 | 0.00 | 81 | 1016.1 |
| 20260505190753 | 59 | 224 | 6.1 | 10.4 | 0.00 | 0.00 | 0.00 | 81 | 1016.1 |
| 20260505185716 | 60 | 188 | 6.1 | 12.2 | 0.00 | 0.00 | 0.00 | 80 | 1016.0 |
| 20260505185232 | 59 | 203 | 3.5 | 13.0 | 0.00 | 0.00 | 0.00 | 81 | 1016.0 |
| 20260505184420 | 59 | 182 | 7.0 | 13.0 | 0.00 | 0.00 | 0.00 | 81 | 1016.1 |
| 20260505183712 | 59 | 229 | 6.1 | 13.0 | 0.00 | 0.00 | 0.00 | 81 | 1016.1 |
| 20260505182750 | 59 | 218 | 6.1 | 13.0 | 0.00 | 0.00 | 0.00 | 82 | 1016.1 |
| 20260505181610 | 59 | 198 | 7.0 | 11.3 | 0.00 | 0.00 | 0.00 | 81 | 1016.0 |
| 20260505180751 | 58 | 198 | 5.2 | 10.4 | 0.00 | 0.00 | 0.00 | 82 | 1016.0 |
| 20260505175936 | 58 | 217 | 6.1 | 11.3 | 0.00 | 0.00 | 0.00 | 83 | 1016.0 |
| 20260505175124 | 58 | 204 | 6.1 | 11.3 | 0.00 | 0.00 | 0.00 | 83 | 1016.0 |
| 20260505174745 | 58 | 195 | 4.3 | 9.6 | 0.00 | 0.00 | 0.00 | 84 | 1016.0 |
| 20260505173831 | 57 | 180 | 4.3 | 12.2 | 0.00 | 0.00 | 0.00 | 83 | 1016.0 |
| 20260505172648 | 58 | 207 | 4.3 | 12.2 | 0.00 | 0.00 | 0.00 | 83 | 1015.9 |
| 20260505172049 | 58 | 181 | 5.2 | 10.4 | 0.00 | 0.00 | 0.00 | 82 | 1015.9 |
| 20260505171718 | 58 | 178 | 5.2 | 10.4 | 0.00 | 0.00 | 0.00 | 83 | 1015.9 |
| 20260505171129 | 58 | 217 | 5.2 | 11.3 | 0.00 | 0.00 | 0.00 | 84 | 1015.8 |
| 20260505170109 | 58 | 251 | 6.1 | 11.3 | 0.00 | 0.00 | 0.00 | 83 | 1015.8 |
| 20260505165350 | 58 | 229 | 3.5 | 10.4 | 0.00 | 0.00 | 0.00 | 84 | 1015.8 |
| 20260505164547 | 58 | 189 | 5.2 | 10.4 | 0.00 | 0.00 | 0.00 | 84 | 1015.8 |
| 20260505163725 | 57 | 209 | 6.1 | 10.4 | 0.00 | 0.00 | 0.00 | 84 | 1015.8 |
| 20260505162649 | 58 | 234 | 4.3 | 7.8 | 0.00 | 0.00 | 0.00 | 83 | 1015.9 |
| 20260505162054 | 58 | 207 | 1.7 | 8.7 | 0.00 | 0.00 | 0.00 | 85 | 1015.9 |
| 20260505161348 | 57 | 194 | 5.2 | 9.6 | 0.00 | 0.00 | 0.00 | 84 | 1015.8 |
| 20260505160754 | 57 | 215 | 5.2 | 9.6 | 0.00 | 0.00 | 0.00 | 84 | 1015.8 |
| 20260505160311 | 57 | 193 | 5.2 | 7.8 | 0.00 | 0.00 | 0.00 | 85 | 1015.7 |
| 20260505153118 | 56 | 250 | 3.5 | 7.8 | 0.00 | 0.00 | 0.00 | 86 | 1015.4 |
| 20260505152519 | 56 | 209 | 3.5 | 7.0 | 0.00 | 0.00 | 0.00 | 86 | 1015.3 |
| 20260505151929 | 56 | 227 | 3.5 | 7.8 | 0.00 | 0.00 | 0.00 | 86 | 1015.2 |
| 20260505151115 | 56 | 148 | 5.2 | 7.8 | 0.00 | 0.00 | 0.00 | 86 | 1015.2 |
| 20260505150629 | 55 | 192 | 2.6 | 6.1 | 0.00 | 0.00 | 0.00 | 87 | 1015.1 |
| 20260505140303 | 54 | 166 | 4.3 | 7.8 | 0.00 | 0.00 | 0.00 | 89 | 1014.5 |
| 20260505124950 | 54 | 186 | 6.1 | 13.0 | 0.00 | 0.00 | 0.00 | 87 | 1013.9 |
| 20260505124136 | 54 | 177 | 5.2 | 12.2 | 0.00 | 0.00 | 0.00 | 87 | 1013.8 |
| 20260505123539 | 54 | 204 | 5.2 | 12.2 | 0.00 | 0.00 | 0.00 | 87 | 1013.8 |
| 20260505122840 | 54 | 163 | 6.1 | 12.2 | 0.00 | 0.00 | 0.00 | 87 | 1013.8 |
| 20260505122355 | 54 | 167 | 4.3 | 12.2 | 0.00 | 0.00 | 0.00 | 86 | 1013.7 |
| 20260505121612 | 54 | 166 | 5.2 | 10.4 | 0.00 | 0.00 | 0.00 | 86 | 1013.6 |
| 20260505121010 | 54 | 167 | 6.1 | 13.9 | 0.00 | 0.00 | 0.00 | 86 | 1013.5 |
| 20260505120510 | 54 | 175 | 4.3 | 13.9 | 0.00 | 0.00 | 0.00 | 85 | 1013.5 |
| 20260505120030 | 54 | 186 | 4.3 | 10.4 | 0.00 | 0.00 | 0.00 | 85 | 1013.4 |
| 20260505115533 | 54 | 182 | 6.1 | 10.4 | 0.00 | 0.00 | 0.00 | 85 | 1013.3 |
| 20260505115011 | 54 | 216 | 4.3 | 10.4 | 0.00 | 0.00 | 0.00 | 85 | 1013.2 |
| 20260505114514 | 54 | 180 | 4.3 | 10.4 | 0.00 | 0.00 | 0.00 | 85 | 1013.1 |
| 20260505114011 | 54 | 180 | 5.2 | 8.7 | 0.00 | 0.00 | 0.00 | 85 | 1013.1 |
| 20260505113512 | 54 | 214 | 4.3 | 7.8 | 0.00 | 0.00 | 0.00 | 84 | 1013.1 |
| 20260505113026 | 54 | 181 | 3.5 | 7.8 | 0.00 | 0.00 | 0.00 | 84 | 1013.1 |